User: anonymous   Login
Location: Jodlow
(50.1500°N, 16.7500°E)
Time: 05:39:03
(UTC+01:00)
Language:

XW-2B - Orbit

View from above orbital plane
View from above orbital plane
View from above satellite
View from above satellite

Ground track
Ground track

The orbit data is extracted from the following two-line orbital elements,

1 40911U 15049N   24057.77164708  .00034830  00000-0  87881-3 0  9995
2 40911  97.4811  74.0677 0007084 349.6621  10.4477 15.39747213467370
Epoch (UTC): 26 February 2024 18:31:10
Eccentricity: 0.0007084
inclination: 97.4811°
perigee height: 442 km
apogee height: 451 km
right ascension of ascending node: 74.0677°
argument of perigee: 349.6621°
revolutions per day: 15.39747213
mean anomaly at epoch: 10.4477°
orbit number at epoch: 46737

The dashed part of the orbit path shows where the satellite is in the earth's shadow,  

DLR